{"data":{"norad_id":51150,"intl_designator":"2022-005AY","name":"STARLINK-3357","alt_names":[],"object_type":"PAYLOAD","status":"ACTIVE","operator":null,"country":"US","launch_date":"2022-01-19","launch_site_code":"AFETR","launch_vehicle":null,"mission":null,"orbit_class":"UNKNOWN","rcs_meters":null,"size_class":null,"mass_kg":null,"dimensions":null,"purposes":["comms"],"wikipedia_slug":null,"has_3d_model":false,"image_url":null,"decayed_at":null,"tle_current":{"epoch":"2026-05-25T04:02:43.779264Z","epoch_age_seconds":74564,"freshness":"FRESH","line1":"1 51150U 22005AY  26145.16856226 -.00000025  00000+0  16490-4 0  9996","line2":"2 51150  53.2131 315.4072 0001303  95.9276 264.1865 15.08836702240295","mean_motion":15.08836702,"eccentricity":0.0001303,"inclination_deg":53.2131,"raan_deg":315.4072,"arg_perigee_deg":95.9276,"mean_anomaly_deg":264.1865,"bstar":1.649e-5,"rev_number":24029,"period_min":95.437763284207,"perigee_km":538.85206852089,"apogee_km":540.65487077728,"semimajor_km":6917.8904696491,"source":"CELESTRAK","updated_at":"2026-05-25T13:38:16.916670Z"}}}